Weather History for Chippewa, MI

Change the Weather History Date:

Wednesday, September 3, 2014

  Actual Average Record
Temperature  
Mean Temperature 66 °F -  
Max Temperature 75 °F 70 °F 87 °F (1999)
Min Temperature 57 °F 46 °F 32 °F (1981)
Cooling Degree Days 1    
Growing Degree Days 16 (Base 50)    
Moisture  
Dew Point 59 °F    
Average Humidity 79    
Maximum Humidity 100    
Minimum Humidity 50    
Precipitation  
Precipitation 0.00 in - - ()
Sea Level Pressure  
Sea Level Pressure 29.93 in    
Wind  
Wind Speed 6 mph (SSW)    
Max Wind Speed 15 mph    
Max Gust Speed 23 mph    
Visibility 9 miles    
Events      
Averages and records for this station are not official NWS values.
T = Trace of Precipitation, MM = Missing Value Source: NWS Daily Summary

Daily Weather History Graph

Daily Weather History Graph

Search for Another Location

Airport:

Trip Planner

Search our weather history database for the weather conditions in past years. The results will help you decide how hot, cold, wet, or windy it might be!

Date:

Astronomy

Sep. 03, 2014 Rise Set
Actual Time 7:00 AM EDT 8:12 PM EDT
Civil Twilight 6:29 AM EDT 8:43 PM EDT
Nautical Twilight 5:52 AM EDT 9:20 PM EDT
Astronomical Twilight 5:13 AM EDT 9:59 PM EDT
Moon 4:04 PM EDT (9/3) 12:43 AM EDT (9/3)
Length of Visible Light 14h 13m
Length of Day
13h 11m
Waxing Gibbous, 63% of the Moon is Illuminated
Sep 3
Waxing Gibbous
Sep 8
Full
Sep 15
Last Quarter
Sep 24
New
Oct 1
First Quarter

Hourly Weather History & Observations

Time (EDT) Temp. Dew Point Humidity Pressure Visibility Wind Dir Wind Speed Gust Speed Precip Events Conditions
12:15 AM 57.2 °F 57.2 °F 100% 29.87 in 10.0 mi SSW 4.6 mph - N/A   Clear
12:35 AM 57.2 °F 57.2 °F 100% 29.87 in 10.0 mi SSW 4.6 mph - N/A   Clear
12:55 AM 57.2 °F 55.4 °F 94% 29.87 in 10.0 mi SW 4.6 mph - N/A   Clear
1:15 AM 57.2 °F 55.4 °F 94% 29.88 in 10.0 mi South 4.6 mph - N/A   Clear
1:35 AM 57.2 °F 55.4 °F 94% 29.88 in 10.0 mi SSW 4.6 mph - N/A   Clear
1:55 AM 57.2 °F 55.4 °F 94% 29.88 in 10.0 mi South 5.8 mph - N/A   Clear
2:15 AM 57.2 °F 57.2 °F 100% 29.88 in 10.0 mi South 4.6 mph - N/A   Clear
2:35 AM 57.2 °F 55.4 °F 94% 29.88 in 10.0 mi South 4.6 mph - N/A   Clear
2:55 AM 57.2 °F 57.2 °F 100% 29.88 in 10.0 mi South 4.6 mph - N/A   Clear
3:15 AM 57.2 °F 57.2 °F 100% 29.89 in 10.0 mi South 4.6 mph - N/A   Clear
3:35 AM 57.2 °F 55.4 °F 94% 29.89 in 10.0 mi South 4.6 mph - N/A   Clear
3:55 AM 57.2 °F 57.2 °F 100% 29.90 in 10.0 mi South 4.6 mph - N/A   Clear
4:15 AM 57.2 °F 57.2 °F 100% 29.90 in 9.0 mi South 3.5 mph - N/A   Clear
4:35 AM 57.2 °F 57.2 °F 100% 29.90 in 8.0 mi South 4.6 mph - N/A   Clear
4:55 AM 59.0 °F 57.2 °F 94% 29.91 in 5.0 mi Calm Calm - N/A   Mostly Cloudy
5:15 AM 57.2 °F 57.2 °F 100% 29.91 in 0.8 mi Calm Calm - N/A   Overcast
5:35 AM 57.2 °F 55.4 °F 94% 29.92 in 0.5 mi Calm Calm - N/A   Overcast
5:55 AM 57.2 °F 57.2 °F 100% 29.91 in 3.0 mi South 3.5 mph - N/A   Overcast
6:15 AM 60.8 °F 60.8 °F 100% 29.91 in 6.0 mi South 4.6 mph - N/A   Overcast
6:35 AM 60.8 °F 59.0 °F 94% 29.92 in 6.0 mi SSW 5.8 mph - N/A   Overcast
6:55 AM 60.8 °F 60.8 °F 100% 29.91 in 5.0 mi South 6.9 mph - N/A   Overcast
7:15 AM 60.8 °F 60.8 °F 100% 29.92 in 5.0 mi SSW 5.8 mph - N/A   Overcast
7:35 AM 60.8 °F 60.8 °F 100% 29.92 in 4.0 mi SSW 6.9 mph - N/A   Overcast
7:55 AM 60.8 °F 60.8 °F 100% 29.93 in 1.8 mi SW 3.5 mph - N/A   Overcast
8:15 AM 60.8 °F 60.8 °F 100% 29.93 in 0.2 mi SW 5.8 mph - N/A   Overcast
8:35 AM 62.6 °F 62.6 °F 100% 29.93 in 0.8 mi SW 4.6 mph - N/A   Overcast
8:55 AM 62.6 °F 62.6 °F 100% 29.94 in 5.0 mi SW 3.5 mph - N/A   Overcast
9:15 AM 64.4 °F 64.4 °F 100% 29.94 in 10.0 mi SSW 4.6 mph - N/A   Mostly Cloudy
9:35 AM 66.2 °F 64.4 °F 94% 29.94 in 10.0 mi SW 5.8 mph - N/A   Partly Cloudy
9:55 AM 68.0 °F 62.6 °F 83% 29.95 in 10.0 mi SW 8.1 mph - N/A   Clear
10:15 AM 69.8 °F 62.6 °F 78% 29.94 in 10.0 mi WSW 9.2 mph - N/A   Clear
10:35 AM 71.6 °F 60.8 °F 69% 29.94 in 10.0 mi SW 5.8 mph - N/A   Clear
10:55 AM 71.6 °F 59.0 °F 64% 29.95 in 10.0 mi WSW 6.9 mph - N/A   Clear
11:15 AM 71.6 °F 57.2 °F 60% 29.95 in 10.0 mi WSW 9.2 mph 19.6 mph N/A   Clear
11:35 AM 73.4 °F 59.0 °F 61% 29.95 in 10.0 mi WSW 6.9 mph - N/A   Clear
11:55 AM 73.4 °F 59.0 °F 61% 29.95 in 10.0 mi SW 11.5 mph 19.6 mph N/A   Clear
12:15 PM 73.4 °F 57.2 °F 57% 29.94 in 10.0 mi WSW 12.7 mph 18.4 mph N/A   Clear
12:35 PM 73.4 °F 57.2 °F 57% 29.94 in 10.0 mi WSW 13.8 mph 20.7 mph N/A   Clear
12:55 PM 73.4 °F 57.2 °F 57% 29.94 in 9.0 mi WSW 9.2 mph 18.4 mph N/A   Clear
1:15 PM 75.2 °F 57.2 °F 53% 29.94 in 10.0 mi WSW 15.0 mph 20.7 mph N/A   Clear
1:35 PM 75.2 °F 57.2 °F 53% 29.95 in 10.0 mi SW 10.4 mph 21.9 mph N/A   Clear
1:55 PM 75.2 °F 57.2 °F 53% 29.95 in 10.0 mi WSW 13.8 mph 20.7 mph N/A   Clear
2:15 PM 75.2 °F 55.4 °F 50% 29.95 in 10.0 mi SW 12.7 mph 20.7 mph N/A   Clear
2:35 PM 75.2 °F 57.2 °F 53% 29.96 in 10.0 mi WSW 13.8 mph 23.0 mph N/A   Clear
2:55 PM 75.2 °F 55.4 °F 50% 29.96 in 10.0 mi WSW 9.2 mph 20.7 mph N/A   Clear
3:15 PM 75.2 °F 55.4 °F 50% 29.95 in 10.0 mi SW 15.0 mph 20.7 mph N/A   Clear
3:35 PM 75.2 °F 55.4 °F 50% 29.95 in 10.0 mi SW 11.5 mph 21.9 mph N/A   Clear
3:55 PM 75.2 °F 57.2 °F 53% 29.95 in 10.0 mi WSW 12.7 mph 19.6 mph N/A   Clear
4:15 PM 75.2 °F 57.2 °F 53% 29.95 in 10.0 mi WSW 8.1 mph 18.4 mph N/A   Clear
4:35 PM 75.2 °F 57.2 °F 53% 29.94 in 10.0 mi SW 11.5 mph 18.4 mph N/A   Clear
4:55 PM 75.2 °F 57.2 °F 53% 29.94 in 10.0 mi WSW 8.1 mph - N/A   Clear
5:15 PM 75.2 °F 57.2 °F 53% 29.95 in 10.0 mi SW 8.1 mph - N/A   Clear
5:35 PM 73.4 °F 57.2 °F 57% 29.94 in 10.0 mi SW 5.8 mph 16.1 mph N/A   Clear
5:55 PM 73.4 °F 57.2 °F 57% 29.95 in 10.0 mi SW 6.9 mph - N/A   Clear
6:15 PM 73.4 °F 57.2 °F 57% 29.95 in 10.0 mi SW 6.9 mph - N/A   Clear
6:35 PM 73.4 °F 59.0 °F 61% 29.95 in 10.0 mi SSW 8.1 mph - N/A   Clear
6:55 PM 71.6 °F 59.0 °F 64% 29.95 in 10.0 mi SSW 6.9 mph - N/A   Clear
7:15 PM 71.6 °F 60.8 °F 69% 29.95 in 10.0 mi South 3.5 mph - N/A   Clear
7:35 PM 69.8 °F 60.8 °F 73% 29.95 in 10.0 mi South 4.6 mph - N/A   Clear
7:55 PM 68.0 °F 60.8 °F 78% 29.95 in 10.0 mi South 5.8 mph - N/A   Clear
8:15 PM 68.0 °F 60.8 °F 78% 29.95 in 10.0 mi South 3.5 mph - N/A   Clear
8:35 PM 66.2 °F 60.8 °F 83% 29.96 in 8.0 mi South 4.6 mph - N/A   Clear
8:55 PM 64.4 °F 60.8 °F 88% 29.95 in 9.0 mi South 4.6 mph - N/A   Clear
9:15 PM 66.2 °F 60.8 °F 83% 29.96 in 10.0 mi South 4.6 mph - N/A   Mostly Cloudy
9:35 PM 64.4 °F 60.8 °F 88% 29.97 in 10.0 mi South 4.6 mph - N/A   Mostly Cloudy
9:55 PM 64.4 °F 60.8 °F 88% 29.96 in 10.0 mi SSE 5.8 mph - N/A   Scattered Clouds
10:15 PM 64.4 °F 60.8 °F 88% 29.97 in 10.0 mi SSE 4.6 mph - N/A   Mostly Cloudy
10:35 PM 64.4 °F 60.8 °F 88% 29.95 in 10.0 mi SSE 6.9 mph - N/A   Overcast
10:55 PM 64.4 °F 60.8 °F 88% 29.95 in 10.0 mi SSE 6.9 mph - N/A   Overcast
11:15 PM 64.4 °F 60.8 °F 88% 29.94 in 10.0 mi SE 9.2 mph - N/A   Scattered Clouds
11:35 PM 64.4 °F 60.8 °F 88% 29.94 in 10.0 mi SSE 8.1 mph - N/A   Mostly Cloudy
11:55 PM 64.4 °F 60.8 °F 88% 29.95 in 10.0 mi SSE 6.9 mph - N/A   Mostly Cloudy